Location: Miles
(41.4492°N, 81.6087°W)
Time: 16:40:52
(UTC+00:00)

S-56A Canister/Altair - Pass Details

Date: 19 September 2024
Orbit: 636 x 2487 km, 38.9° (Epoch: 12 October)

Event Time Altitude Azimuth Distance (km) Brightness Sun altitude
Rises 03:45:29 0° 279° (W) 3,828 11.5 -42.2°
Reaches altitude 10° 03:47:56 10° 273° (W) 3,077 10.9 -42.4°
Enters shadow 03:50:02 21° 263° (W) 2,520 10.2 -42.6°
